"Pseudo-MPEC" for P11kOvx

Created 2021 Sep 15 12:07:16 UT using Find_Orb

Click here for an explanation of pseudo-MPECs

 
 Astrometry: 
     P11kOvx  C2021 09 10J1l;,Ka=ROA,t)_Yeq(C0xGrmGMc!RNGGAstrometry[s.x%7s1-F51
     P11kOvx  C2021 09 10GnF3=.0'aXb3%cahe9=2`x+HP09#uFKiFQVc:gE!E-4JpOm[BdH\F51
     P11kOvx  C2021 09 10S^FwI9wt]C9atZ,O%9=*cmQyi;GLW0Wr.2+!I)[bjUCv^i!`RHk+F51
     P11kOvx  C2021 09 108,Rd=-Nt%6U7v0`%kredacted;#ok^V49=fb.ro$df1l;7)p(%i*F51
     P11kOvx  C2021 09 10qFyKFDcXsxd\Jd+O(q`u2w$(].IAYIt*omKPpy(Z5Sy@\'7BVJt4F51
     P11kOvx  C2021 09 10,Tq;W8N2YO*TZPScehpdbREt$H60b%Y.93AhqGCRclickRPo=se[F51
     P11kOvx |C2021 09 13[qZ5E\here9nM$Jfor5]^ikwV2@N4cfmO]fnex705+$/)Qlg@^QJ807
     P11kOvx |C2021 09 13^%^!_Jo4-5(%7mX)WG46cw?ni,h'$?,cDjd)oYqVoy\`Fni$;WnX807
     P11kOvx |C2021 09 13T3LxsnYw4e`2V%%^3[-gqHgekkZI9explanation8#LUy35w!730807
     P11kOvx KC2021 09 15.31345 00 03 36.27 -28 40 35.1    ~9F8M 21.9 RoNEOCP291
     P11kOvx KC2021 09 15.31802 00 03 35.87 -28 40 35.4    ~9F8M 21.2 RoNEOCP291
     P11kOvx KC2021 09 15.32284 00 03 35.35 -28 40 34.5    ~9F8M 21.7 RoNEOCP291

Station data:
(291) LPL/Spacewatch II  (N31.961669 W111.599905)  US/Arizona.  Observers J.
   V. Scotti, R. S. McMillan. 1.8-m f/2.7 reflector + CCD.
(807) Cerro Tololo Observatory, La Serena  (S30.169136 W70.805900)  Chile.
(F51) Pan-STARRS 1, Haleakala  (N20.707235 W156.255910)  US/Hawaii.
   Observers N. Primak, A. Schultz, S. Watters, J. Thiel, T. Goggia. Measurer
   PS1 Science Consortium. 1.8-m Ritchey-Chrétien + CCD.

Orbital elements:  P11kOvx
   Perihelion 2022 Aug 18.625396 +/- 4.14809 TT = 15:00:34 (JD 2459810.125396)
Epoch 2021 Sep 15.0 TT = JDT 2459472.5   Earth MOID: 0.7296   AutoNEOCP
M 227.81719966 +/- 1.8625671        (J2000 ecliptic)
n   0.39150727 +/- 0.00146411       Peri.   98.85714 +/- 1.2985433
a   1.85058691 +/- 0.00461327       Node    31.38553 +/- 0.2964385
e   0.1240479 +/- 0.0036871         Incl.   20.36030 +/- 0.1809964
P   2.52/919.51d           H 19.5   G  0.15   U  8.4  
q 1.62102533 +/- 0.00285464    Q 2.08014850 +/- 0.0119624
From 12 observations 2021 Sept. 10-15; mean residual 0".22
Residuals in arcseconds: 
210910 F51  .00   .03+    210910 F51  .01-  .01+    210913 807  .03+  .02-    
210910 F51  .01-  .54-    210910 F51  .07+  .06+    210915 291  .49-  .09+    
210910 F51  .05-  .19+    210913 807  .16-  .05+    210915 291  .41+  .39-    
210910 F51  .01+  .26+    210913 807  .13+  .04-    210915 291  .07+  .31+    

Ephemerides (geocentric):
Date (UTC) HH   RA              Dec         delta   r     elong  mag " sig PA
---- -- -- --  -------------   -----------  ------ ------ -----  --- ---- ---
2021 09 15 12  00 03 17.754   -28 40 19.74  1.0686 2.0181 153.3 22.0 .241 178
2021 09 15 13  00 03 13.619   -28 40 17.76  1.0686 2.0180 153.3 22.0 .255 178
2021 09 15 14  00 03 09.482   -28 40 15.73  1.0686 2.0180 153.3 22.0 .270 178
2021 09 15 15  00 03 05.345   -28 40 13.66  1.0686 2.0179 153.3 22.0 .285 179
2021 09 15 16  00 03 01.207   -28 40 11.54  1.0685 2.0179 153.3 22.0 .300 179
2021 09 15 17  00 02 57.067   -28 40 09.37  1.0685 2.0179 153.3 22.0 .316 179
2021 09 15 18  00 02 52.927   -28 40 07.16  1.0685 2.0178 153.3 22.0 .331 179
2021 09 15 19  00 02 48.786   -28 40 04.91  1.0685 2.0178 153.3 22.0 .347 179
2021 09 15 20  00 02 44.644   -28 40 02.61  1.0684 2.0177 153.3 22.0 .363 179
2021 09 15 21  00 02 40.501   -28 40 00.26  1.0684 2.0177 153.3 22.0 .380 179
2021 09 15 22  00 02 36.357   -28 39 57.87  1.0684 2.0177 153.3 22.0 .396 179
2021 09 15 23  00 02 32.212   -28 39 55.43  1.0684 2.0176 153.3 22.0 .413 179
2021 09 16 00  00 02 28.066   -28 39 52.95  1.0683 2.0176 153.2 22.0 .430 179
2021 09 16 01  00 02 23.920   -28 39 50.42  1.0683 2.0175 153.2 22.0 .447 179
2021 09 16 02  00 02 19.772   -28 39 47.85  1.0683 2.0175 153.2 22.0 .465 179
2021 09 16 03  00 02 15.624   -28 39 45.23  1.0683 2.0175 153.2 22.0 .482   0
2021 09 16 04  00 02 11.475   -28 39 42.57  1.0683 2.0174 153.2 22.0 .500   0
2021 09 16 05  00 02 07.325   -28 39 39.86  1.0682 2.0174 153.2 22.0 .518   0
2021 09 16 06  00 02 03.174   -28 39 37.11  1.0682 2.0173 153.2 22.0 .537   0
2021 09 16 07  00 01 59.023   -28 39 34.31  1.0682 2.0173 153.2 22.0 .555   0
2021 09 16 08  00 01 54.870   -28 39 31.46  1.0682 2.0172 153.2 22.0 .574   0
2021 09 16 09  00 01 50.717   -28 39 28.57  1.0682 2.0172 153.2 22.0 .593   0
2021 09 16 10  00 01 46.563   -28 39 25.63  1.0681 2.0172 153.2 22.0 .613   0
2021 09 16 11  00 01 42.408   -28 39 22.65  1.0681 2.0171 153.2 22.0 .632   0
2021 09 16 12  00 01 38.253   -28 39 19.62  1.0681 2.0171 153.2 22.0 .652   0
2021 09 16 13  00 01 34.097   -28 39 16.55  1.0681 2.0170 153.2 22.0 .672   0
2021 09 16 14  00 01 29.940   -28 39 13.43  1.0681 2.0170 153.2 22.0 .692   0
2021 09 16 15  00 01 25.782   -28 39 10.27  1.0681 2.0170 153.2 22.0 .712   0
2021 09 16 16  00 01 21.623   -28 39 07.05  1.0680 2.0169 153.2 22.0 .733   1
2021 09 16 17  00 01 17.464   -28 39 03.80  1.0680 2.0169 153.2 22.0 .754   1
2021 09 16 18  00 01 13.304   -28 39 00.50  1.0680 2.0168 153.2 22.0 .775   1
2021 09 16 19  00 01 09.144   -28 38 57.15  1.0680 2.0168 153.2 22.0 .796   1
2021 09 16 20  00 01 04.982   -28 38 53.75  1.0680 2.0167 153.2 22.0 .818   1
2021 09 16 21  00 01 00.820   -28 38 50.31  1.0680 2.0167 153.2 22.0 .839   1
2021 09 16 22  00 00 56.658   -28 38 46.83  1.0679 2.0167 153.2 22.0 .861   1
2021 09 16 23  00 00 52.495   -28 38 43.30  1.0679 2.0166 153.2 22.0 .884   1
2021 09 17 00  00 00 48.331   -28 38 39.72  1.0679 2.0166 153.2 22.0 .906   1
2021 09 17 01  00 00 44.166   -28 38 36.09  1.0679 2.0165 153.2 22.0 .929   1
2021 09 17 02  00 00 40.001   -28 38 32.42  1.0679 2.0165 153.2 22.0 .952   1
2021 09 17 03  00 00 35.835   -28 38 28.71  1.0679 2.0165 153.2 22.0 .975   1
2021 09 17 04  00 00 31.669   -28 38 24.95  1.0679 2.0164 153.2 22.0 1.00   1
2021 09 17 05  00 00 27.502   -28 38 21.14  1.0679 2.0164 153.2 22.0 1.02   1
2021 09 17 06  00 00 23.334   -28 38 17.28  1.0679 2.0163 153.1 22.0 1.05   2
2021 09 17 07  00 00 19.166   -28 38 13.38  1.0678 2.0163 153.1 22.0 1.07   2
2021 09 17 08  00 00 14.998   -28 38 09.44  1.0678 2.0163 153.1 22.0 1.09   2
2021 09 17 09  00 00 10.828   -28 38 05.45  1.0678 2.0162 153.1 22.0 1.12   2
2021 09 17 10  00 00 06.659   -28 38 01.41  1.0678 2.0162 153.1 22.0 1.14   2
2021 09 17 11  00 00 02.488   -28 37 57.32  1.0678 2.0161 153.1 22.0 1.17   2